Regional Weather Roundup
Issued by NWS

Home | Current Version | Previous Version | Graphics & Text | Print | Product List | Glossary On
Versions: 1 2 3 4 5 6 7 8 9 10 11 12 13 14 15 16 17 18 19 20 21 22 23 24 25 26 27 28 29 30 31 32 33 34 35 36 37 38 39 40 41 42 43 44 45 46 47 48 49 50
000
ASUS45 KSLC 251710
RWRUT

UTAH REGIONAL WEATHER ROUNDUP
NATIONAL WEATHER SERVICE SALT LAKE CITY UT
1100 AM MDT WED APR 25 2018

UTZ001>011-023>025-251800-

NORTHERN UTAH

CITY           SKY/WX    TMP DP  RH WIND       PRES   REMARKS
BRIGHAM CITY   SUNNY     58  26  28 N3        30.26F
DUGWAY         MOSUNNY   62  23  23 SW3       30.25F
HILL AFB       SUNNY     58  27  30 E6        30.25F
LOGAN          SUNNY     54  32  43 N6        30.26F
OGDEN          SUNNY     59  23  25 CALM      30.24F
SALT LAKE CITY MOSUNNY   61  29  29 SE7       30.24F
TOOELE VALLEY  SUNNY     61  32  33 N7        30.25S
WENDOVER       SUNNY     58  29  33 E9        30.24F
HEBER CITY       N/A     54  27  35 W5        30.27F
WEST JORDAN    SUNNY     59  31  35 S13G18    30.25F

$$

UTZ011>015-024>027-251800-

CENTRAL/NORTHEAST UTAH

CITY           SKY/WX    TMP DP  RH WIND       PRES   REMARKS
PROVO AIRPORT  MOSUNNY   58  31  35 W6        30.27F
MOAB/CANYONLAN SUNNY     57  19  22 NW7       30.29F
DELTA          SUNNY     55  27  33 CALM      30.26F
PRICE          SUNNY     53  19  26 CALM      30.32F
RICHFIELD      SUNNY     55  21  26 CALM      30.29F
ROOSEVELT      SUNNY     50  21  32 CALM      30.39F
VERNAL         SUNNY     50  22  33 S8        30.36F

$$

UTZ013>016-019>022-027-251800-

SOUTHERN UTAH

CITY           SKY/WX    TMP DP  RH WIND       PRES   REMARKS
BRYCE CANYON   SUNNY     55  16  21 VRB5      30.35S
CEDAR CITY     SUNNY     60  25  26 VRB3      30.25F
MILFORD        SUNNY     60  28  29 MISG      30.25F
ST GEORGE      SUNNY     73  25  16 E5        30.16F
HANKSVILLE     SUNNY     59  19  21 NW3       30.33F
KANAB          SUNNY     66  18  15 NE13      30.28F
BLANDING         N/A     62   8  11 W8        30.33F

$$

REGIONAL REPORTS     COLORADO/ARIZONA

CITY           SKY/WX    TMP DP  RH WIND       PRES   REMARKS
CRAIG, CO      SUNNY     47  27  45 VRB5      30.36F
GRAND JUNCTION SUNNY     55  20  25 VRB7      30.31F
RIFLE, CO      SUNNY     50  24  36 CALM      30.32F
MONTROSE, CO   SUNNY     50  18  28 NE3       30.33F
CORTEZ, CO     SUNNY     61   4  10 VRB7      30.25S
COLORADO CITY    N/A     72  21  15 E7        30.26S
PAGE, AZ       SUNNY     66  19  16 NE8       30.25S
GRAND CANYON   SUNNY     64  16  15 E9        30.31S
KINGMAN, AZ    SUNNY     80  23  12 N6        30.11S
FLAGSTAFF, AZ  SUNNY     62  19  19 E10G18    30.32S

$$

REGIONAL REPORTS    NEVADA/IDAHO/WYOMING

CITY           SKY/WX    TMP DP  RH WIND       PRES   REMARKS
LAS VEGAS, NV  MOSUNNY   79  25  13 E6        30.07S
ELY, NY        SUNNY     59  21  23 SE3       30.26F
ELKO, NV       SUNNY     58  23  26 CALM      30.24S
POCATELLO, ID  SUNNY     61  31  32 NE5       30.24F
BURLEY, ID     MOSUNNY   57  31  37 VRB7      30.21F
FORT BRIDGER,    N/A     45  22  39 N3        30.36S
EVANSTON, WY   SUNNY     48  20  32 CALM      30.32F
ROCK SPRINGS,  SUNNY     46  15  28 CALM      30.32F
KEMMERER, WY   SUNNY     45  18  33 S5        30.34F

$$



USA.gov is the U.S. government's official web portal to all federal, state and local government web resources and services.